Location: Błonie
(52.1971°N, 20.6200°E)
Time: 07:30:05
(UTC+02:00)

ISS - Pass Details

Date: 26 January 2019
Orbit: 411 x 421 km, 51.6° (Epoch: 24 October)

Event Time Altitude Azimuth Distance (km) Brightness Sun altitude
Rises 19:05:59 0° 259° (WSW) 2,419 1.3 -26.2°
Reaches altitude 10° 19:08:06 10° 258° (WSW) 1,552 0.0 -26.5°
Enters shadow 19:09:49 27° 255° (WSW) 880 -1.6 -26.8°
